Reflectivity
9 3 -20 -20 -20 -20 -20 -20 -20 -20 -20 -20 -20 -20 -20 -20 -20 -20 -20 -20 -20 -20 -20 -20 -20 -20 -20 32 -14 -20 -20 -11 25 2 -18 -15 36 24 27 -18 1 12 -5 -1 1 -2 -0 2 -6
-18 -8 -20 -20 -20 -20 -20 -20 -20 -20 -20 -20 -20 -20 -20 -20 -20 -20 -10 -20 -20 -20 -20 -20 -12 -20 -20 -20 -20 -20 -20 -20 -20 16 34 8 10 6 -20 -10 5 14 3 -4 5 13 14 -8 -10
11 -3 -20 -20 -20 -20 -20 -20 -20 -20 -20 -20 -20 -20 -20 -20 -20 -20 -20 -20 -20 -12 -20 -4 -20 -20 -20 -20 -20 -20 -20 -20 -20 -11 34 -11 31 -7 8 11 -5 -20 -1 13 8 11 0 -4 -6
9 -5 -20 -20 -20 -20 -20 -20 -20 -20 -20 -20 -20 -20 -20 -20 -20 -20 -17 -20 -20 6 4 -19 -20 5 -20 -19 -20 -19 -19 31 33 30 32 27 34 26 36 2 -9 -18 -7 -11 -6 -1 -2 -4 2
12 -20 -20 -20 -20 -20 -20 -20 -20 -20 -20 -20 -20 -20 -20 -20 -20 -20 -3 -20 4 4 10 -20 -9 -20 -20 -20 -3 -20 -20 -20 7 13 34 14 40 36 25 13 -2 -20 -1 -17 -17 -5 -20 -1 -12
-17 -20 -20 -20 -20 -20 -20 -20 -20 -20 -20 -20 -20 -20 -20 -6 6 -13 5 3 7 11 18 -9 -20 -20 7 5 -20 -20 -20 -7 -20 26 17 28 -8 14 -20 -20 4 -16 -9 -20 -20 -20 -2 -4 -20
-20 -20 -20 -20 -20 -20 -20 -20 -20 -20 -20 -20 -20 -20 7 10 7 -1 3 11 14 19 16 29 7 -20 -20 -20 -20 5 -18 -18 26 13 -9 9 -16 -20 -20 -20 -20 -5 -20 -20 -20 -20 -4 -20 -20
-8 -20 -20 -20 -20 -20 -20 -20 -20 -20 -20 -20 -20 -20 -20 -1 -9 4 11 11 5 8 24 9 -20 -20 -20 -20 -20 -19 -16 -20 -17 -20 -20 -20 -20 -11 -8 1 -14 -20 -20 -20 -20 -20 -20 -20 -20
-19 -20 -20 -20 -20 -20 -20 -20 -20 -20 -20 -20 -20 -20 -20 -17 -2 5 11 14 9 28 20 8 -20 -20 -19 -8 19 22 7 11 -2 -20 -20 -20 -20 -20 -12 -20 -20 -20 -20 -20 -20 -20 -20 -20 -20
1 -20 -20 -20 -20 -20 -20 -20 -20 -20 -20 -20 -20 -20 0 8 -20 -11 -1 10 11 10 9 4 -20 -20 -20 -20 -1 15 -6 -18 -10 -20 -20 -20 -20 -20 -20 -20 -13 -19 -20 -20 -20 -20 -20 -20 -20
-15 -20 -20 -20 -20 -20 -20 -20 -20 -20 -20 -20 -20 -14 11 16 -17 -2 2 -1 3 7 8 -20 -20 -11 -20 -7 -9 -4 -20 -20 -10 -17 -20 -20 -20 -20 -20 -20 -20 -20 -20 -20 -20 -20 -20 -20 -20
10 -20 -20 -20 -20 -20 -20 -20 -20 -20 -20 -20 -20 -15 9 7 -16 6 -15 5 6 1 3 -20 -20 -20 -20 1 8 7 -5 7 -7 -20 -20 -20 -20 -20 -20 -20 -20 -20 -20 -20 -20 -20 -20 -20 -20
-0 -20 -20 -20 -20 -20 -20 -20 -20 -20 -20 -20 -20 -18 5 8 11 -13 -3 1 -13 -11 11 -20 -20 -20 -20 -3 -20 -20 -20 -20 -20 -20 -20 -20 -20 -20 -20 -20 -20 -20 -20 -20 -20 -20 -20 -20 -20
-10 -10 -20 -20 -20 -20 -20 -20 -20 -20 -20 -20 -20 -20 -10 -19 1 -16 5 4 17 25 0 -20 -20 -20 -20 -20 -20 -20 -20 -20 -20 -20 -20 -20 -20 -20 -20 -20 -20 -20 -20 -20 -20 -20 -20 -20 -20
-20 -20 -20 -20 -20 -20 -20 -20 -20 -20 -20 -20 -20 -19 -20 9 -2 -12 4 -20 -6 16 -14 -20 -20 -20 -20 -20 -20 -20 -20 -20 -20 -20 -20 -20 -20 -20 -20 -20 -20 -20 -20 -20 -20 -20 -20 -20 -20
14 -20 -20 -20 -20 -20 -20 -20 -20 -20 -20 -20 -20 23 -0 21 -1 -18 5 7 15 -13 -19 -20 -20 -20 -20 -20 -20 -20 -20 -20 -20 -20 -20 -20 -20 -20 -20 -20 -20 -20 -20 -20 -20 -20 -20 -20 -20
20 -20 -15 -20 -20 -20 -20 -20 -20 -20 -20 -20 -20 24 7 -7 -10 -20 -8 9 8 -11 -8 -20 -20 -20 -20 -20 -20 -20 -20 -20 -20 -20 -20 -20 -20 -20 -20 -20 -20 -20 -20 -20 -20 -20 -20 -20 -20
14 -20 -20 -20 -20 -20 -20 -20 -20 -20 -20 -20 31 -8 -7 -20 -6 -17 -15 -20 2 3 -9 -20 -20 -20 -20 -20 -20 -20 -20 -20 -20 -20 -20 -20 -20 -20 -20 -20 -20 -20 -20 -20 -20 -20 -20 -20 -20
-14 -20 -20 -20 -20 -20 -20 -20 -20 26 -13 -1 -20 15 -5 20 1 6 -20 -20 5 9 9 2 -20 -20 -20 -20 -20 -20 -20 -20 -20 -20 -20 -20 -20 -20 -20 -20 -20 -20 -20 -20 -20 -20 -20 -20 -20
-20 -20 -20 -20 -20 -20 -20 5 -20 -12 -20 6 -20 -1 8 -13 9 6 -1 -18 -6 4 -2 2 -20 -20 -20 -20 -20 -20 -20 -20 -20 -20 -20 -20 -20 -20 -20 -20 -20 -20 -20 -20 -20 -20 -20 -20 -20
-20 -20 -20 -20 -20 -20 -20 -20 -20 -20 -9 23 25 -1 10 -11 5 1 -1 -17 -14 4 -7 -20 -20 -20 -20 -20 -20 -20 -20 -20 -20 -20 -20 -20 -20 -20 -20 -20 -20 -20 -20 -20 -20 -20 -20 -20 -20
-20 -20 -20 -20 -20 -20 -20 -20 -20 -20 -18 -20 -6 -11 -17 -19 -15 3 -20 -20 -20 -20 -20 -20 -20 -20 -20 -20 -20 -20 -20 -20 -20 -20 -20 -20 -20 -20 -20 -20 -20 -20 -20 -20 -20 -20 -20 -20 -20
-20 -20 -20 -20 -20 -20 -20 -20 -20 -20 -20 -20 -20 -13 23 -6 23 -11 -4 -20 11 -20 -20 -20 -20 -20 -20 -20 -20 -20 2 1 -19 -20 -20 -20 -20 -20 -20 -20 -20 -20 -20 -20 -20 -20 -20 -20 -20
-19 -20 -20 -18 5 -15 -20 -20 -20 -20 -20 -20 -20 -4 22 18 -16 -19 -20 -20 -6 -1 -20 -20 -20 -17 -20 7 3 10 13 -20 -20 -8 -20 -20 -20 -20 -20 -20 -20 -20 -20 -20 -20 -20 -20 -20 -20
16 -19 10 16 19 0 -20 -20 -20 -20 -20 -20 0 1 13 13 -18 17 10 -20 7 -6 -20 -20 -14 -20 -20 -20 -20 -20 -20 -20 10 -3 -10 -20 -20 -20 -20 -20 -20 -20 -20 -20 -20 -20 -20 -20 -20
-20 -9 -20 -14 -19 -20 -20 -20 -20 -20 -20 -20 -20 -20 4 13 -20 -19 -19 5 -12 -10 -7 -20 -20 -20 -20 -20 -20 -20 -17 -20 -17 10 8 -8 -20 -20 -20 4 -16 -18 -2 6 -3 -18 -20 -20 -20
-20 -20 -20 -20 -20 -20 -20 -20 -20 -20 -20 -20 -20 -20 -9 -6 8 -20 -6 6 8 4 0 -20 -20 -20 -20 -20 -20 -8 -18 -13 -20 -18 -16 6 -8 6 -8 -20 -20 -19 -17 -18 6 -13 -20 -20 -20
-20 -20 -20 -20 -20 -20 -20 -20 -20 -20 -20 -20 -20 -20 -17 -19 -20 -13 -20 -19 -15 -20 -14 -1 -20 13 -6 -20 -20 3 -8 -4 -20 -20 -20 -20 -19 -20 -20 -20 -20 -20 -6 -16 -2 -12 -12 -19 -20
-20 -20 -20 -20 -20 -20 -20 -20 -20 -20 -20 -20 -20 -20 -20 -11 -20 -20 -20 -20 -20 -20 -20 -20 -20 -17 -8 -8 16 2 5 -20 -20 -20 -20 -20 -16 -13 -20 -20 2 -3 -20 -14 -7 -10 -1 -18 -20
-20 -20 -20 -20 -20 -20 -20 -20 -20 -20 -20 -20 -20 -20 -20 -20 -20 -20 -19 -20 -17 -8 -20 -20 -20 -20 -20 -20 -20 -19 -18 17 -18 -5 -20 -20 -20 -20 -20 12 -6 -1 7 0 -20 5 2 12 -20
Wind_Speed
6 9 6 5 8 7 16 9 2 8 6 3 5 5 6 5 2 4 4 4 13 15 15 14 10 11 11 12 12 12 12 12 13 14 15 17 18 19 19 20 19 20 20 20 19 19 19 19 21
3 6 5 3 9 14 15 13 11 7 4 8 6 6 5 5 4 6 10 9 16 14 13 14 11 12 12 12 12 12 13 13 14 16 13 16 17 18 19 20 20 21 19 19 19 18 19 19 19
7 10 6 6 12 18 16 16 14 7 9 7 6 2 2 5 6 11 8 14 14 13 12 13 11 13 13 13 14 15 16 16 16 14 14 15 15 16 20 20 20 19 19 18 18 18 19 18 19
7 5 4 11 20 20 20 13 14 12 5 5 3 8 6 4 10 7 14 16 14 13 12 12 14 14 13 15 16 16 17 17 17 18 21 22 16 17 17 19 18 19 18 19 19 18 18 18 18
4 6 12 13 22 20 13 11 16 14 9 10 8 6 5 3 7 13 14 14 14 13 13 13 13 14 15 15 16 17 17 17 18 20 21 25 20 14 18 18 18 18 18 19 18 18 18 18 18
7 6 14 19 21 16 15 12 13 13 8 9 7 8 4 6 12 12 14 14 14 14 13 14 14 16 18 18 17 16 14 14 15 17 19 20 21 17 19 18 17 18 19 19 18 18 17 18 17
15 12 17 21 20 19 16 10 12 13 11 9 10 6 5 10 12 12 11 12 13 14 15 15 16 16 16 15 16 14 14 15 17 17 17 17 17 17 19 17 17 19 19 18 17 17 17 17 16
13 10 20 21 19 21 13 11 4 11 9 6 4 7 8 12 14 12 11 13 14 13 15 16 16 15 14 12 14 12 12 17 16 16 15 15 15 16 17 15 15 18 18 18 17 16 16 16 15
4 12 19 22 24 21 13 10 4 2 12 4 5 4 14 20 17 12 12 13 13 12 14 16 15 13 9 12 9 11 15 17 15 14 11 10 10 12 13 12 12 15 16 17 17 16 15 15 12
11 17 26 15 18 18 15 17 12 9 12 6 7 9 21 18 18 15 16 15 16 15 15 14 13 12 10 9 12 11 12 9 8 9 10 9 9 10 11 10 11 14 15 15 16 14 10 8 9
13 20 15 14 16 17 18 13 9 11 13 13 18 20 22 18 17 17 16 16 16 14 13 14 12 12 12 10 9 6 5 6 6 10 8 9 9 8 7 6 7 9 9 8 10 8 5 7 6
19 17 12 15 13 17 18 14 11 16 4 9 18 21 20 19 16 18 17 14 14 15 15 13 13 12 13 8 8 8 7 6 6 7 9 7 5 6 6 4 6 6 5 7 6 5 7 7 7
18 20 9 8 10 14 16 14 12 10 3 14 21 21 21 18 16 17 16 13 12 13 15 14 13 13 12 10 8 7 7 6 8 7 7 6 7 7 6 6 4 5 5 5 6 6 6 7 7
19 17 10 6 12 11 15 9 9 4 10 18 20 20 19 19 18 15 15 14 12 15 16 14 13 12 12 10 10 7 6 8 7 6 7 8 6 6 6 6 4 4 4 5 5 5 6 5 6
23 18 12 8 14 9 14 9 9 10 14 18 18 17 17 17 17 17 17 14 13 15 16 14 13 13 12 11 9 7 6 7 7 6 7 8 7 7 7 6 5 4 4 6 6 5 5 5 5
24 20 18 8 14 5 16 19 6 12 17 18 18 15 16 17 18 16 14 14 13 16 16 14 11 12 11 10 8 7 7 6 6 6 5 7 6 6 5 5 5 5 5 5 5 5 5 5 5
21 21 24 9 7 9 14 16 11 11 15 17 18 17 16 16 16 14 15 13 14 16 16 15 14 13 11 11 8 8 9 6 6 6 5 7 5 5 5 5 5 6 5 5 5 5 5 5 4
15 27 23 19 10 12 12 9 13 11 14 17 17 17 15 16 16 16 16 14 12 15 16 14 12 13 12 10 8 6 6 6 6 6 5 7 5 6 5 4 6 5 5 5 5 6 5 5 5
27 28 23 15 4 16 13 11 13 11 9 12 13 14 15 16 14 12 14 14 14 15 16 15 14 14 10 9 9 8 7 7 6 6 7 7 7 7 7 5 6 5 6 6 7 5 7 4 5
22 29 23 10 6 7 9 10 9 9 12 14 16 16 16 16 15 14 13 12 14 16 16 15 15 14 11 9 8 7 7 7 7 6 7 8 8 9 7 7 6 6 5 7 8 8 5 3 7
16 26 22 19 11 7 16 7 7 8 9 9 12 14 14 19 18 16 14 14 15 17 17 16 17 16 13 12 8 6 6 5 6 7 6 8 9 9 8 8 6 7 6 6 8 8 8 5 6
19 15 18 16 18 12 6 10 8 8 10 13 12 13 16 17 17 17 17 17 16 19 18 18 16 15 14 14 11 12 9 8 7 8 8 8 10 9 9 8 8 7 6 7 7 7 7 6 6
11 10 15 14 14 10 8 4 12 10 9 13 16 17 15 14 15 19 19 17 16 18 17 16 13 12 13 15 13 11 11 9 7 7 8 9 9 10 10 9 9 8 7 8 8 8 9 7 6
11 11 14 8 6 7 3 5 11 10 11 13 13 12 10 16 17 17 16 12 11 15 16 15 17 14 14 14 16 16 14 11 5 5 7 7 7 7 10 10 10 9 9 9 8 9 10 9 8
8 15 4 3 3 8 1 4 4 11 9 9 15 15 17 15 15 15 13 12 11 15 15 15 15 15 15 17 18 17 16 15 11 8 7 6 7 6 9 12 12 9 9 9 9 9 10 10 9
18 13 8 8 8 10 2 9 5 2 1 1 5 16 8 12 13 14 15 14 16 17 16 17 18 17 14 15 15 13 14 11 9 10 7 9 8 8 11 11 9 10 8 8 7 8 9 10 10
10 11 7 7 3 5 9 4 5 3 2 3 5 9 9 5 5 2 1 7 12 15 16 17 18 18 17 15 14 14 12 12 9 11 10 8 9 8 9 11 11 11 11 10 9 7 10 10 11
9 11 9 5 9 7 8 16 9 12 13 10 8 9 6 4 4 4 5 5 4 4 6 11 14 16 17 18 14 12 14 16 14 13 13 13 10 11 10 11 12 12 12 11 11 9 10 10 10
8 10 2 5 3 8 6 10 13 14 16 16 12 7 5 4 4 3 4 6 7 6 5 6 4 9 11 10 12 12 11 13 15 13 13 12 13 14 14 12 15 14 13 13 12 13 12 13 13
2 6 10 9 8 1 5 4 2 1 4 8 9 6 5 4 4 4 4 5 6 7 7 7 7 6 5 5 4 9 10 9 10 11 12 12 12 14 13 15 15 15 15 14 13 13 12 17 15
Wind_Direction
244 154 172 210 199 230 219 194 257 182 198 174 147 189 204 15 297 20 138 109 141 148 142 153 145 142 143 132 126 116 124 124 124 121 121 116 118 111 106 105 103 98 97 97 97 96 94 94 96
185 160 158 210 232 201 208 199 194 171 107 142 146 159 177 115 76 106 146 154 149 146 146 142 140 139 137 132 123 116 107 108 106 102 109 115 111 109 111 110 105 99 97 94 96 95 96 97 98
139 207 184 203 220 214 206 195 197 129 142 167 143 333 106 105 98 141 114 148 148 143 142 119 137 135 133 127 120 115 112 115 114 121 107 105 96 103 106 106 100 97 97 97 96 97 98 98 99
136 190 217 225 208 218 216 182 194 151 164 188 183 125 109 8 135 126 143 148 145 143 138 128 131 132 123 119 117 112 110 111 112 108 99 83 69 76 98 104 101 99 97 99 98 97 98 98 101
169 175 204 215 216 207 225 186 186 182 162 169 184 131 91 97 121 134 151 149 147 142 130 137 126 120 116 115 115 113 114 114 113 107 109 120 116 119 112 107 104 102 101 100 101 103 103 102 100
156 200 207 207 204 205 208 192 179 195 170 146 155 129 100 143 136 144 151 148 146 141 136 132 118 117 114 110 103 104 104 108 117 119 123 121 115 115 112 112 108 103 101 102 102 102 102 102 99
193 189 205 204 195 196 191 182 181 184 174 170 144 111 105 140 140 140 136 149 146 139 138 134 128 116 107 106 103 102 102 108 112 103 100 103 105 108 110 115 112 106 104 102 103 104 104 101 96
224 202 196 201 197 202 174 164 203 177 163 105 183 155 166 152 141 134 139 148 140 140 141 131 134 127 118 108 98 88 86 88 87 90 89 85 88 94 94 108 108 106 105 103 105 107 106 100 94
226 205 198 192 193 189 165 159 126 107 142 157 148 137 134 143 138 142 138 143 139 141 140 139 139 131 128 119 108 97 94 93 105 103 111 130 109 104 90 71 98 104 103 104 106 105 102 96 82
185 209 200 186 190 182 177 196 149 157 153 137 133 128 134 145 149 150 152 145 145 145 146 145 145 129 135 128 128 135 132 121 118 118 106 103 106 95 96 83 77 102 99 101 106 110 118 149 122
203 207 189 181 194 174 169 187 170 167 188 180 172 152 149 150 156 153 157 153 147 147 148 149 143 139 138 142 137 137 124 122 123 115 108 113 118 126 116 123 124 124 135 119 124 136 102 110 108
181 206 179 175 181 177 170 149 164 184 128 166 150 156 149 155 158 160 159 150 148 153 151 149 141 143 139 138 147 139 136 135 131 123 128 131 122 124 124 113 119 125 123 124 116 111 108 105 108
188 189 196 174 168 185 150 172 168 169 117 144 145 156 156 157 162 162 155 142 147 149 152 150 149 143 142 142 142 141 135 138 128 136 137 140 136 131 126 119 123 121 134 131 124 123 119 116 110
188 173 172 163 167 162 169 160 164 140 141 142 151 161 158 159 160 162 155 149 152 159 152 149 148 146 144 144 146 141 142 133 139 141 143 143 139 140 133 125 121 122 140 137 140 132 124 117 112
170 169 171 169 171 156 153 139 188 142 149 145 155 156 156 163 163 167 160 160 151 162 149 151 147 149 145 146 143 143 137 146 145 139 145 142 146 144 137 129 134 135 130 134 129 127 123 119 116
163 167 173 156 169 158 190 190 144 156 153 156 158 159 158 163 167 165 164 158 167 157 159 151 151 154 148 148 148 141 144 147 143 146 145 146 145 146 144 139 141 141 144 146 150 148 135 133 136
171 166 177 151 192 157 203 180 148 173 168 163 166 166 161 161 165 165 162 160 176 164 161 162 162 160 155 156 151 146 151 150 153 156 157 158 151 157 158 154 141 156 145 146 151 150 149 147 150
158 162 173 166 171 183 176 133 145 174 180 176 171 171 166 166 169 169 163 159 182 174 170 166 164 166 162 159 158 151 157 159 167 167 172 176 178 175 166 158 156 157 156 155 163 159 162 164 152
165 161 166 150 162 172 177 146 156 166 186 174 179 170 169 169 165 166 165 168 182 180 177 175 171 170 168 170 173 168 171 170 175 178 178 183 178 180 180 171 169 180 184 181 178 164 162 154 163
176 165 165 117 126 130 156 122 126 171 199 190 180 176 173 165 165 166 167 169 186 183 183 180 180 177 183 179 178 180 180 185 183 180 191 190 186 183 185 187 188 191 191 186 182 181 171 169 190
167 165 157 151 134 100 140 120 167 185 207 203 193 182 178 174 171 172 173 178 190 191 190 187 186 185 188 183 176 183 173 174 180 183 185 195 199 193 198 198 192 189 196 196 195 195 195 185 191
160 160 165 145 164 165 236 166 187 175 201 203 192 180 179 187 186 181 185 189 193 197 194 192 191 191 194 190 189 192 197 192 196 189 194 193 200 203 205 203 202 197 199 207 203 203 210 211 198
139 163 141 163 165 149 191 200 151 166 199 200 189 175 188 195 194 192 195 195 197 202 199 196 190 190 194 194 202 201 209 208 192 175 191 198 200 204 207 209 207 207 205 210 207 204 209 215 224
151 129 109 120 159 198 144 264 169 178 191 181 173 172 187 202 203 203 201 188 199 207 204 202 197 195 193 197 204 211 215 211 184 183 182 189 202 204 209 212 216 218 217 214 211 214 218 219 224
185 149 76 129 58 195 155 222 39 173 188 192 169 170 197 202 204 203 197 192 198 204 207 207 203 204 206 204 205 206 213 212 196 184 187 178 191 194 212 210 213 218 221 219 214 215 221 222 224
170 156 165 153 178 194 111 219 171 47 3 197 194 193 173 191 198 199 207 205 207 202 206 209 209 209 202 198 204 204 210 214 202 196 198 208 193 198 204 201 204 206 201 204 213 226 225 225 228
173 190 133 105 39 167 196 202 217 164 197 198 138 147 125 102 53 104 173 219 218 215 215 210 211 214 207 207 202 206 210 210 201 206 206 204 204 206 197 195 200 206 206 203 198 210 224 224 230
219 145 163 148 160 195 193 220 215 195 198 189 180 164 134 101 63 24 11 5 352 336 313 232 224 220 214 213 206 204 207 219 212 212 209 212 208 213 209 206 205 206 206 207 203 211 222 225 230
157 189 165 150 205 194 184 221 214 208 198 186 171 156 142 127 91 44 22 12 1 360 18 19 348 255 242 242 227 218 213 213 220 222 222 226 225 224 216 213 216 216 210 207 205 213 216 218 227
13 193 210 202 184 218 221 215 358 56 139 161 152 142 121 114 116 85 54 41 35 20 13 26 22 21 8 350 313 248 247 241 244 241 235 232 229 227 219 224 223 222 223 226 216 220 215 225 225